Location: Les Coudrans
(46.1056°N, 1.1158°W)
Time: 15:32:25
(UTC+00:00)

SL-16 R/B - Pass Details

Date: 03 March 2021
Orbit: 843 x 846 km, 71.0° (Epoch: 14 April)

Event Time Altitude Azimuth Distance (km) Brightness Sun altitude
Rises 19:29:47 0° 228° (SW) 3,391 5.9 -17.4°
Reaches altitude 10° 19:32:23 10° 236° (SW) 2,461 5.3 -17.8°
Maximum altitude 19:37:40 40° 305° (NW) 1,226 3.5 -18.7°
Drops below altitude 10° 19:43:01 10° 15° (NNE) 2,476 4.6 -19.6°
Sets 19:45:38 0° 23° (NNE) 3,416 5.3 -20.1°
